Location: Dehesa de la Cepeda
(40.6574°N, 4.3013°W)
Time: 04:19:16
(UTC+00:00)

Cosmos 1825 - Pass Details

Date: 05 July 2020
Orbit: 502 x 509 km, 82.5° (Epoch: 11 August)

Event Time Altitude Azimuth Distance (km) Brightness Sun altitude
Exits shadow 23:32:54 47° 333° (NNW) 682 3.1 -25.7°
Drops below altitude 10° 23:35:50 10° 1° (N) 1,734 5.8 -25.8°
Sets 23:38:00 0° 5° (N) 2,625 7.0 -25.9°
